Weather History for DeLand, FL

Change the Weather History Date:

Saturday, July 13, 2013

  Actual Average Record
Temperature  
Mean Temperature 83 °F -  
Max Temperature 93 °F 91 °F 93 °F (2013)
Min Temperature 73 °F 71 °F 73 °F (2013)
Cooling Degree Days 18    
Growing Degree Days 33 (Base 50)    
Moisture  
Dew Point 73 °F    
Average Humidity 82    
Maximum Humidity 100    
Minimum Humidity 49    
Precipitation  
Precipitation 0.00 in - - ()
Sea Level Pressure  
Sea Level Pressure 29.98 in    
Wind  
Wind Speed 1 mph (SSE)    
Max Wind Speed 17 mph    
Max Gust Speed 26 mph    
Visibility 8 miles    
Events      
Averages and records for this station are not official NWS values.
T = Trace of Precipitation, MM = Missing Value Source: NWS Daily Summary

Daily Weather History Graph

Daily Weather History Graph

Search for Another Location

Airport:

Trip Planner

Search our weather history database for the weather conditions in past years. The results will help you decide how hot, cold, wet, or windy it might be!

Date:

Astronomy

Jul. 13, 2013 Rise Set
Actual Time 6:35 AM EDT 8:26 PM EDT
Civil Twilight 6:08 AM EDT 8:52 PM EDT
Nautical Twilight 5:36 AM EDT 9:24 PM EDT
Astronomical Twilight 5:02 AM EDT 9:58 PM EDT
Moon 11:21 AM EDT (7/13) 11:36 PM EDT (7/13)
Length of Visible Light 14h 44m
Length of Day
13h 50m
Waxing Crescent, 25% of the Moon is Illuminated
Jul 13
Waxing Crescent
Jul 15
First Quarter
Jul 22
Full
Jul 29
Last Quarter
Aug 6
New

Hourly Weather History & Observations

Time (EDT) Temp. Heat Index Dew Point Humidity Pressure Visibility Wind Dir Wind Speed Gust Speed Precip Events Conditions
12:15 AM 75.2 °F - 73.4 °F 94% 29.97 in 10.0 mi Calm Calm - N/A   Partly Cloudy
12:35 AM 75.2 °F - 73.4 °F 94% 29.96 in 9.0 mi Calm Calm - N/A   Partly Cloudy
12:55 AM 75.2 °F - 73.4 °F 94% 29.96 in 9.0 mi Calm Calm - N/A   Clear
1:15 AM 75.2 °F - 73.4 °F 94% 29.95 in 9.0 mi Calm Calm - N/A   Clear
1:35 AM 75.2 °F - 73.4 °F 94% 29.95 in 10.0 mi Calm Calm - N/A   Clear
1:55 AM 75.2 °F - 73.4 °F 94% 29.94 in 9.0 mi Calm Calm - N/A   Clear
2:15 AM 73.4 °F - 71.6 °F 94% 29.93 in 7.0 mi Calm Calm - N/A   Clear
2:35 AM 73.4 °F - 71.6 °F 94% 29.93 in 7.0 mi Calm Calm - N/A   Clear
2:55 AM 73.4 °F - 71.6 °F 94% 29.94 in 8.0 mi Calm Calm - N/A   Clear
3:15 AM 73.4 °F - 71.6 °F 94% 29.94 in 8.0 mi Calm Calm - N/A   Clear
3:35 AM 73.4 °F - 71.6 °F 94% 29.94 in 7.0 mi Calm Calm - N/A   Clear
3:55 AM 73.4 °F - 73.4 °F 100% 29.94 in 7.0 mi Calm Calm - N/A   Clear
4:15 AM 73.4 °F - 73.4 °F 100% 29.94 in 7.0 mi Calm Calm - N/A   Clear
4:35 AM 73.4 °F - 73.4 °F 100% 29.95 in 7.0 mi Calm Calm - N/A   Clear
4:55 AM 73.4 °F - 73.4 °F 100% 29.95 in 6.0 mi Calm Calm - N/A   Clear
5:15 AM 73.4 °F - 71.6 °F 94% 29.96 in 5.0 mi Calm Calm - N/A   Clear
5:35 AM 73.4 °F - 71.6 °F 94% 29.96 in 5.0 mi Calm Calm - N/A   Clear
5:55 AM 73.4 °F - 71.6 °F 94% 29.96 in 5.0 mi Calm Calm - N/A   Clear
6:15 AM 73.4 °F - 71.6 °F 94% 29.95 in 4.0 mi Calm Calm - N/A   Clear
6:35 AM 73.4 °F - 71.6 °F 94% 29.95 in 5.0 mi Calm Calm - N/A   Clear
6:55 AM 73.4 °F - 71.6 °F 94% 29.95 in 5.0 mi Calm Calm - N/A   Clear
7:15 AM 75.2 °F - 73.4 °F 94% 29.95 in 5.0 mi Calm Calm - N/A   Clear
7:35 AM 77.0 °F - 75.2 °F 94% 29.96 in 6.0 mi Calm Calm - N/A   Clear
7:55 AM 78.8 °F - 77.0 °F 94% 29.96 in 9.0 mi Calm Calm - N/A   Clear
8:15 AM 80.6 °F 88.1 °F 78.8 °F 94% 29.97 in 8.0 mi Calm Calm - N/A   Clear
8:35 AM 82.4 °F 92.4 °F 78.8 °F 89% 29.98 in 10.0 mi Calm Calm - N/A   Clear
8:55 AM 84.2 °F 94.1 °F 77.0 °F 79% 29.98 in 8.0 mi Calm Calm - N/A   Clear
9:15 AM 86.0 °F 95.1 °F 75.2 °F 70% 29.99 in 9.0 mi Calm Calm - N/A   Clear
9:35 AM 87.8 °F 97.6 °F 75.2 °F 66% 29.99 in 10.0 mi Calm Calm - N/A   Clear
9:55 AM 87.8 °F 95.6 °F 73.4 °F 62% 30.00 in 10.0 mi Calm Calm - N/A   Partly Cloudy
10:15 AM 87.8 °F 95.6 °F 73.4 °F 62% 30.00 in 8.0 mi Calm Calm - N/A   Partly Cloudy
10:35 AM 87.8 °F 93.8 °F 71.6 °F 58% 30.00 in 9.0 mi SSE 5.8 mph - N/A   Clear
10:55 AM 89.6 °F 98.2 °F 73.4 °F 59% 30.00 in 10.0 mi Calm Calm - N/A   Clear
11:15 AM 89.6 °F 98.2 °F 73.4 °F 59% 30.00 in 9.0 mi Calm Calm - N/A   Clear
11:35 AM 91.4 °F 100.1 °F 73.4 °F 55% 30.00 in 9.0 mi Calm Calm - N/A   Partly Cloudy
11:55 AM 89.6 °F 98.2 °F 73.4 °F 59% 29.99 in 9.0 mi Calm Calm - N/A   Scattered Clouds
12:15 PM 89.6 °F 96.2 °F 71.6 °F 55% 29.99 in 9.0 mi Calm Calm - N/A   Scattered Clouds
12:35 PM 89.6 °F 96.2 °F 71.6 °F 55% 29.98 in 9.0 mi South 5.8 mph - N/A   Scattered Clouds
12:55 PM 89.6 °F 96.2 °F 71.6 °F 55% 29.98 in 9.0 mi Calm Calm - N/A   Scattered Clouds
1:15 PM 91.4 °F 98.4 °F 71.6 °F 52% 29.97 in 8.0 mi Calm Calm - N/A   Scattered Clouds
1:35 PM 91.4 °F 98.4 °F 71.6 °F 52% 29.97 in 8.0 mi SE 4.6 mph - N/A   Scattered Clouds
1:55 PM 93.2 °F 100.5 °F 71.6 °F 49% 29.96 in 10.0 mi ESE 3.5 mph - N/A   Partly Cloudy
2:15 PM 91.4 °F 100.1 °F 73.4 °F 55% 29.95 in 9.0 mi Calm Calm - N/A   Scattered Clouds
2:35 PM 91.4 °F 98.4 °F 71.6 °F 52% 29.95 in 10.0 mi SE 4.6 mph - N/A   Partly Cloudy
2:55 PM 91.4 °F 102.5 °F 75.2 °F 59% 29.95 in 9.0 mi SE 17.3 mph 20.7 mph N/A   Scattered Clouds
3:15 PM 82.4 °F 89.5 °F 75.2 °F 79% 29.96 in - SE 5.8 mph - N/A   Mostly Cloudy
3:35 PM 86.0 °F 96.9 °F 77.0 °F 74% 29.96 in 10.0 mi ESE 12.7 mph - N/A   Partly Cloudy
3:55 PM 87.8 °F 97.6 °F 75.2 °F 66% 29.96 in 9.0 mi ESE 12.7 mph 20.7 mph N/A   Partly Cloudy
4:15 PM 87.8 °F 95.6 °F 73.4 °F 62% 29.96 in 9.0 mi SSE 10.4 mph 18.4 mph N/A   Partly Cloudy
4:35 PM 86.0 °F 93.4 °F 73.4 °F 66% 29.98 in 9.0 mi SSE 11.5 mph - N/A   Scattered Clouds
4:55 PM 82.4 °F 87.2 °F 71.6 °F 70% 30.00 in 7.0 mi SW 15.0 mph 26.5 mph N/A   Mostly Cloudy
5:15 PM 75.2 °F - 69.8 °F 83% 30.01 in 5.0 mi SW 13.8 mph 23.0 mph N/A   Mostly Cloudy
5:35 PM 73.4 °F - 71.6 °F 94% 30.00 in 6.0 mi Calm Calm - N/A   Mostly Cloudy
5:55 PM 73.4 °F - 71.6 °F 94% 30.01 in 10.0 mi Calm Calm - N/A   Partly Cloudy
6:15 PM 75.2 °F - 71.6 °F 89% 30.01 in 10.0 mi Calm Calm - N/A   Clear
6:35 PM 75.2 °F - 71.6 °F 89% 30.00 in 9.0 mi Calm Calm - N/A   Clear
6:55 PM 75.2 °F - 73.4 °F 94% 30.00 in 10.0 mi Calm Calm - N/A   Clear
7:15 PM 75.2 °F - 73.4 °F 94% 30.00 in 9.0 mi Calm Calm - N/A   Partly Cloudy
7:35 PM 75.2 °F - 73.4 °F 94% 29.99 in 8.0 mi Calm Calm - N/A   Clear
7:55 PM 75.2 °F - 71.6 °F 89% 29.99 in 9.0 mi Calm Calm - N/A   Partly Cloudy
8:15 PM 75.2 °F - 71.6 °F 89% 29.99 in 8.0 mi Calm Calm - N/A   Partly Cloudy
8:35 PM 73.4 °F - 71.6 °F 94% 29.99 in 8.0 mi Calm Calm - N/A   Partly Cloudy
8:55 PM 73.4 °F - 71.6 °F 94% 29.99 in 9.0 mi Calm Calm - N/A   Clear
9:15 PM 73.4 °F - 71.6 °F 94% 30.00 in 9.0 mi Calm Calm - N/A   Clear
9:35 PM 73.4 °F - 71.6 °F 94% 30.01 in 10.0 mi Calm Calm - N/A   Clear
9:55 PM 73.4 °F - 71.6 °F 94% 30.01 in 9.0 mi Calm Calm - N/A   Clear
10:15 PM 73.4 °F - 71.6 °F 94% 30.02 in 9.0 mi Calm Calm - N/A   Clear
10:35 PM 73.4 °F - 71.6 °F 94% 30.01 in 10.0 mi Calm Calm - N/A   Clear
10:55 PM 73.4 °F - 71.6 °F 94% 30.02 in 9.0 mi Calm Calm - N/A   Clear
11:15 PM 73.4 °F - 71.6 °F 94% 30.03 in 9.0 mi Calm Calm - N/A   Clear
11:35 PM 73.4 °F - 71.6 °F 94% 30.03 in 8.0 mi Calm Calm - N/A   Clear
11:55 PM 73.4 °F - 71.6 °F 94% 30.03 in 9.0 mi Calm Calm - N/A   Clear